IMPULSE-2 MIRA

导读

IMPULSE-2 MIRA(别称“LEO Express-2” Mira)是美国Impulse Space公司开发的航天器,于2025年1月14日搭载SpaceX Transporter-12任务发射入轨。该卫星承担Remora技术验证任务,配合Starfish的自主导航控制系统,仅依靠单目视觉相机实现了与旧版Mira航天器的自主交会操作,验证了自主在轨服务技术,为后续卫星维修、太空碎片清理等应用奠定基础。

基本信息
目录编号:
62673
目录名称:
IMPULSE-2 MIRA
国际标识:
2025-009BS
轨道中心:
EARTH
卫星名称:
IMPULSE-2 MIRA
卫星全名:
IMPULSE-2 MIRA
卫星状态:
在轨 (已飞行599 天)
发射日期:
2025-01-14 UTC
国别 :
美国 (US)
星等 :
--
轨道信息
数据来源 国际轨道数据
星历时间: 2026-09-05T11:19:11+0800
5小时前
查看轨道信息
半长轴: 6877.508km
偏心率: 0.0002008
轨道倾角: 97.419°
近地点辐角 210.950°
升交点赤经 320.744°
平近点角 149.161°
近地点: 497.989km
远地点: 500.753km
周期: 94.603分钟
每日圈数: 15.221455
详细信息
使用方式:
暂无
2D轨道图
3D轨道图
轨道高度分析图
轨道倾角分析图
轨道综合分析图
查看轨道综合分析图
交会数据列表
事件ID 空间交会对象 最接近时刻(TCA) 交会距离 交会风险概率(CRP) 交会风险指数(CRI) 操作
CDM_260907-164206-267306-388921
2026-09-07T
16:42:44+0000
1.354 km
极远距离
9.596707E-6 低风险 0.55
CDM_260906-184006-267306-387721
2026-09-06T
18:40:27+0000
1.490 km
极远距离
6.963567E-6 低风险 0.52
CDM_260903-042406-267306-739324
HAWK-13C (67393)
2026-09-03T
04:24:22+0000
2.481 km
极远距离
1.337182E-6 低风险 0.38
CDM_260905-060506-267306-726222
OBJECT Q (67262)
2026-09-05T
06:05:12+0000
2.541 km
极远距离
2.89704E-7 极低风险 0.24